Simultaneous Nadir Overpasses (SNOs) Predictions

Prediction of SNOs between AURA and NPP Satellite Orbit:

Table of predicted SNOs for the next 14.0 days since TLE Epoch: 4/17/2021
Index Date (AURA) Time (AURA) Lat,Lon (AURA) SZA (AURA ) Date (NPP) Time (NPP) Lat,Lon (NPP) SZA (NPP ) Distance(km) Time Diff (sec)
1 04/17/2021 19:57:57 79.52, 137.34 81.77 04/17/2021 19:57:45 79.51, 137.37 81.77 0.67 12
2 04/17/2021 20:47:18 -79.74, -53.36 98.59 04/17/2021 20:48:23 -79.75, -53.27 98.66 1.89 65
3 04/20/2021 11:25:05 -79.30, 84.10 98.84 04/20/2021 11:24:01 -79.30, 84.09 98.79 0.24 64
4 04/20/2021 12:14:25 79.52,-106.77 80.83 04/20/2021 12:14:39 79.51,-106.89 80.85 2.43 14
5 04/23/2021 03:41:32 -79.33,-159.77 99.80 04/23/2021 03:40:54 -79.33,-159.90 99.75 2.70 38
6 04/23/2021 04:30:49 79.66, 10.15 79.71 04/23/2021 04:31:28 79.67, 10.22 79.67 1.52 39
7 04/25/2021 19:57:54 -79.52, -42.65 100.95 04/25/2021 19:57:41 -79.52, -42.56 100.96 1.79 13
8 04/25/2021 20:47:15 79.69, 126.23 78.78 04/25/2021 20:48:20 79.69, 126.21 78.74 0.46 65
9 04/28/2021 11:25:00 79.29, -95.89 78.53 04/28/2021 11:23:56 79.29, -95.94 78.59 1.02 64



Historial Predications of SNOs between AURA and NPP
